Al Hoceima, Morocco

2:54 AM WET on May 22, 2018 (GMT +0000)
Al Hoceima

Weather History for GMTA - December, 2012

Change the Weather History Date:

Thursday, December 20, 2012

  Actual Average Record
Temperature  
Mean Temperature 60 °F -  
Max Temperature 68 °F 60 °F 80 °F (2015)
Min Temperature 51 °F 46 °F 41 °F (2008)
Degree Days  
Heating Degree Days 6    
Growing Degree Days 10 (Base 50)    
Moisture  
Dew Point 53 °F    
Average Humidity 75    
Maximum Humidity 88    
Minimum Humidity 58    
Precipitation  
Precipitation 0.00 in - - ()
Sea Level Pressure  
Sea Level Pressure 30.20 in    
Wind  
Wind Speed 4 mph ()    
Max Wind Speed 7 mph    
Max Gust Speed -    
Visibility 6.6 miles    
Events      
Averages and records for this station are not official NWS values.
T = Trace of Precipitation, MM = Missing Value Source: Averaged Metar Reports

Daily Weather History Graph

Daily Weather History Graph

Search for Another Location

Airport or City:

Astronomy

Dec. 20, 2012 Rise Set
Actual Time 7:19 AM WET 5:06 PM WET
Civil Twilight 6:51 AM WET 5:35 PM WET
Nautical Twilight 6:19 AM WET 6:06 PM WET
Astronomical Twilight 5:48 AM WET 6:37 PM WET
Moon 12:06 PM WET (12/20) 12:04 AM WET (12/20)
Length of Visible Light 10h 43m
Length of Day
9h 47m
First Quarter, 53% of the Moon is Illuminated
Dec 20
First Quarter
Dec 28
Full
Jan 5
Last Quarter
Jan 11
New
Jan 18
First Quarter

Hourly Weather History & Observations

Time (WET) Temp. Dew Point Humidity Pressure Visibility Wind Dir Wind Speed Gust Speed Precip Events Conditions
6:00 AM 56 °F 51 °F 77% 30.19 in 6 mi SSE 4.6 mph - -   Partly Cloudy
6:00 AM 55.4 °F 51.8 °F 88% 30.18 in 6.2 mi SSE 4.6 mph - N/A   Scattered Clouds
7:00 AM 57.2 °F 51.8 °F 82% 30.18 in 6.2 mi South 4.6 mph - N/A   Scattered Clouds
8:00 AM 57.2 °F 51.8 °F 82% 30.18 in - North - - N/A   Scattered Clouds
9:00 AM 61 °F 54 °F 73% 30.21 in 5 mi SW 4.6 mph - -   Partly Cloudy
9:00 AM 60.8 °F 55.4 °F 82% 30.21 in 5.0 mi SW 2.3 mph - N/A   Scattered Clouds
10:00 AM 62.6 °F 55.4 °F 77% 30.21 in 5.0 mi SW 4.6 mph - N/A   Partly Cloudy
11:00 AM 68.0 °F 57.2 °F 68% 30.21 in 6.2 mi SSW 2.3 mph - N/A   Partly Cloudy
12:00 PM 67 °F 56 °F 58% 30.24 in 6 mi NNE 6.9 mph - -   Clear
12:00 PM 68.0 °F 55.4 °F 64% 30.21 in - NNE 6.9 mph - N/A   Clear
1:00 PM 66.2 °F 53.6 °F 64% 30.18 in - SE 4.6 mph - N/A   Clear
2:00 PM 64.4 °F 53.6 °F 68% 30.15 in - North 6.9 mph - N/A   Clear
3:00 PM 65 °F 54 °F 60% 30.18 in 9 mi North 6.9 mph - -   Clear
3:00 PM 64.4 °F 55.4 °F 73% 30.15 in - North 6.9 mph - N/A   Clear
4:00 PM 64.4 °F 55.4 °F 73% 30.15 in - ENE 4.6 mph - N/A   Clear
5:00 PM 60.8 °F 53.6 °F 77% 30.18 in - East 4.6 mph - N/A   Clear
6:00 PM 58 °F 51 °F 71% 30.21 in 9 mi SSW 2.3 mph - -   Clear
6:00 PM 57.2 °F 51.8 °F 82% 30.18 in - SSW 2.3 mph - N/A   Clear
7:00 PM 55.4 °F 48.2 °F 77% 30.21 in - NW 4.6 mph - N/A   Clear
8:00 PM 53.6 °F 50.0 °F 88% 30.24 in - South 4.6 mph - N/A   Clear
9:00 PM 55 °F 49 °F 74% 30.26 in 9 mi South 4.6 mph - -   Clear
9:00 PM 55.4 °F 50.0 °F 82% 30.24 in - South 4.6 mph - N/A   Clear